GW3823 Weather Reports


Display with metric or nautical units.
time (UTC)temp
F
wind
direction
speed
MPH
gust
MPH
rain 1hr
in
rain 24hr
in
rain mn
in
humidity
%
barometer
mb
20260504215805 46 176 8.0 16.0 0.05 0.11 0.11 80 1008.0
20260504215305 46 163 6.0 12.0 0.05 0.11 0.11 73 1005.7
20260504214804 48 137 3.0 10.0 0.05 0.11 0.11 70 1005.6
20260504214305 48 148 6.0 12.0 0.05 0.11 0.11 65 1005.2
20260504213806 50 234 2.0 6.0 0.05 0.11 0.11 60 1005.3
20260504213306 49 181 2.0 6.0 0.05 0.11 0.11 58 1010.4
20260504212804 49 103 1.0 5.0 0.05 0.11 0.11 65 1005.2
20260504212306 48 210 2.0 3.0 0.05 0.11 0.11 58 1005.1
20260504211804 48 226 2.0 5.0 0.05 0.11 0.11 64 1005.4
20260504211305 49 162 2.0 6.0 0.05 0.11 0.11 56 1013.6
20260504210805 49 202 2.0 6.0 0.05 0.11 0.11 57 1005.4
20260504210305 49 355 2.0 9.0 0.05 0.11 0.11 55 1012.5
20260504205805 51 197 5.0 9.0 0.04 0.06 0.06 66 1005.5
20260504205305 51 179 1.0 6.0 0.04 0.06 0.06 58 1005.4
20260504204805 48 114 2.0 9.0 0.04 0.06 0.06 61 1010.3
20260504204305 49 280 2.0 6.0 0.04 0.06 0.06 62 1005.7
20260504203805 47 201 3.0 7.0 0.04 0.06 0.06 73 1005.8
20260504203305 48 215 2.0 7.0 0.04 0.06 0.06 62 1007.0
20260504202805 48 172 3.0 7.0 0.04 0.06 0.06 68 1008.0
20260504202305 47 63 1.0 5.0 0.04 0.06 0.06 68 1006.9
20260504201805 47 31 3.0 8.0 0.05 0.06 0.06 68 1007.7
20260504201305 48 181 5.0 8.0 0.05 0.06 0.06 68 1006.6
20260504200804 48 314 3.0 7.0 0.05 0.06 0.06 72 1007.8
20260504200305 47 186 4.0 13.0 0.05 0.06 0.06 70 1006.8
20260504195805 46 134 7.0 14.0 0.01 0.02 0.02 69 1006.5
20260504195305 47 74 9.0 14.0 0.01 0.01 0.01 64 1006.3
20260504194805 48 183 9.0 20.0 0.01 0.01 0.01 60 1006.2
20260504194305 48 156 6.0 17.0 0.01 0.01 0.01 57 1006.3
20260504193805 48 171 6.0 21.0 0.01 0.01 0.01 73 1005.9
20260504193305 48 165 12.0 23.0 0.01 0.01 0.01 58 1010.8
20260504192304 50 166 17.0 22.0 0.01 0.01 0.01 52 1005.5
20260504191805 52 202 7.0 16.0 0.00 0.00 0.00 45 1005.4
20260504191304 53 170 7.0 16.0 0.00 0.00 0.00 45 1005.5
20260504190805 55 157 5.0 12.0 0.00 0.00 0.00 44 1013.2
20260504190304 53 182 3.0 9.0 0.00 0.00 0.00 45 1005.4
20260504185805 59 214 2.0 5.0 0.00 0.00 0.00 45 1013.0
20260504185305 58 253 3.0 9.0 0.00 0.00 0.00 46 1005.5
20260504184805 58 28 6.0 9.0 0.00 0.00 0.00 46 1005.4
20260504183806 58 267 3.0 9.0 0.00 0.00 0.00 49 1005.6
20260504183305 58 21 5.0 10.0 0.00 0.00 0.00 49 1005.9
20260504182805 58 47 6.0 12.0 0.00 0.00 0.00 52 1005.9
20260504182305 58 40 6.0 9.0 0.00 0.00 0.00 53 1007.4
20260504181805 58 18 6.0 10.0 0.00 0.00 0.00 38 1008.4
20260504180804 58 24 6.0 13.0 0.00 0.00 0.00 57 1008.3
20260504175805 54 335 3.0 8.0 0.00 0.00 0.00 67 1006.9
20260504175305 53 9 5.0 12.0 0.00 0.00 0.00 70 1015.3
20260504174804 53 37 6.0 9.0 0.00 0.00 0.00 49 1006.9
20260504174305 43 30 3.0 9.0 0.00 0.00 0.00 76 1007.1
20260504173805 53 18 5.0 8.0 0.00 0.00 0.00 76 1007.0
20260504172805 53 33 5.0 9.0 0.00 0.00 0.00 60 1007.4
20260504172304 53 46 7.0 9.0 0.00 0.00 0.00 79 1007.4
20260504171805 53 37 5.0 21.0 0.00 0.00 0.00 62 1007.6
20260504171304 53 153 20.0 21.0 0.00 0.00 0.00 83 1007.7
20260504170805 53 153 20.0 21.0 0.00 0.00 0.00 83 1015.4
20260504170304 53 147 5.0 5.0 0.00 0.00 0.00 81 1009.6
20260504160305 47 182 4.0 8.0 0.00 0.00 0.00 58 1007.1
20260504150805 42 105 1.0 3.0 0.00 0.00 0.00 55 1007.8
20260504150305 41 194 1.0 3.0 0.00 0.00 0.00 56 1011.8
20260504141304 39 198 2.0 5.0 0.00 0.00 0.00 61 1008.1
20260504140804 38 162 1.0 2.0 0.00 0.00 0.00 63 1008.1
20260504140305 38 194 0.0 2.0 0.00 0.00 0.00 61 1008.0
20260504130804 36 174 1.0 3.0 0.00 0.00 0.00 67 1007.5
20260504130305 36 205 1.0 2.0 0.00 0.00 0.00 67 1015.1
20260504120304 35 23 3.0 8.0 0.00 0.00 0.00 66 1007.3
20260504110304 35 47 2.0 5.0 0.00 0.00 0.00 67 1007.4
20260504100304 35 67 5.0 7.0 0.00 0.00 0.00 56 1013.7
20260504081806 35 66 5.0 13.0 0.00 0.00 0.00 61 1007.3
20260504081306 36 52 7.0 12.0 0.00 0.00 0.00 60 1007.3
20260504080806 36 49 4.0 9.0 0.00 0.00 0.00 59 1007.3
20260504080305 36 59 5.0 8.0 0.00 0.00 0.00 59 1007.3
20260504070306 38 65 7.0 12.0 0.00 0.00 0.00 57 1007.9
20260504045806 46 64 4.0 6.0 0.00 0.00 0.00 48 1009.8
20260504045305 45 47 1.0 5.0 0.00 0.00 0.00 48 1008.3
20260504044806 46 19 3.0 3.0 0.00 0.00 0.00 48 1007.9
20260504044306 46 35 3.0 7.0 0.00 0.00 0.00 49 1007.9
20260504043806 44 73 5.0 7.0 0.00 0.00 0.00 50 1008.7
20260504042806 45 70 2.0 6.0 0.00 0.00 0.00 48 1007.8
20260504042306 47 70 4.0 6.0 0.00 0.00 0.00 45 1008.9
20260504041806 46 64 5.0 7.0 0.00 0.00 0.00 45 1008.0
20260504040305 47 75 5.0 9.0 0.00 0.00 0.00 45 1008.6
20260504035805 45 63 6.0 9.0 0.00 0.00 0.00 45 1009.6
20260504035306 46 51 4.0 9.0 0.00 0.00 0.00 45 1008.3
20260504034805 48 57 6.0 7.0 0.00 0.00 0.00 45 1009.0
20260504034306 49 59 5.0 9.0 0.00 0.00 0.00 45 1009.9
20260504033806 47 52 8.0 12.0 0.00 0.00 0.00 31 1008.7
20260504033306 48 56 7.0 12.0 0.00 0.00 0.00 45 1009.2
20260504032805 46 59 4.0 12.0 0.00 0.00 0.00 44 1008.0
20260504032306 48 84 5.0 12.0 0.00 0.00 0.00 43 1008.7
20260504031806 49 55 7.0 13.0 0.00 0.00 0.00 44 1009.6
20260504031305 47 54 6.0 9.0 0.00 0.00 0.00 44 1008.2
20260504030306 47 74 3.0 9.0 0.00 0.00 0.00 33 1007.8
20260504025306 48 86 3.0 6.0 0.00 0.00 0.00 42 1009.4
20260504024805 50 65 4.0 6.0 0.00 0.00 0.00 41 1008.3
20260504023806 50 55 1.0 2.0 0.00 0.00 0.00 40 1007.8
20260504023306 52 21 1.0 2.0 0.00 0.00 0.00 40 1008.5
20260504022805 53 306 0.0 3.0 0.00 0.00 0.00 39 1009.1
20260504022305 51 57 2.0 6.0 0.00 0.00 0.00 27 1007.9
20260504021806 53 67 3.0 5.0 0.00 0.00 0.00 38 1009.1
20260504021306 51 61 5.0 6.0 0.00 0.00 0.00 28 1007.6
20260504020806 53 65 5.0 6.0 0.00 0.00 0.00 37 1008.6
20260504020305 52 68 3.0 6.0 0.00 0.00 0.00 35 1007.4
20260504015805 54 59 2.0 5.0 0.00 0.00 0.00 34 1008.3
20260504014805 55 348 1.0 5.0 0.00 0.00 0.00 16 1007.9
20260504014306 56 235 1.0 3.0 0.00 0.00 0.00 30 1008.7
20260504013805 55 267 0.0 3.0 0.00 0.00 0.00 22 1007.7
20260504013306 56 191 1.0 5.0 0.00 0.00 0.00 29 1008.6
20260504012305 56 67 2.0 13.0 0.00 0.00 0.00 18 1008.2
20260504011806 58 59 4.0 9.0 0.00 0.00 0.00 27 1009.0
20260504011305 56 340 1.0 12.0 0.00 0.00 0.00 15 1007.7
20260504010805 58 78 7.0 12.0 0.00 0.00 0.00 25 1008.8
20260504010306 56 157 4.0 9.0 0.00 0.00 0.00 24 1007.3
20260504005806 58 65 4.0 12.0 0.00 0.00 0.00 17 1008.2
20260504004806 58 248 2.0 12.0 0.00 0.00 0.00 24 1008.1
20260504004306 60 132 3.0 8.0 0.00 0.00 0.00 25 1008.7
20260504003806 58 71 4.0 6.0 0.00 0.00 0.00 24 1007.7
20260504003305 59 95 3.0 8.0 0.00 0.00 0.00 24 1008.4
20260504002805 58 79 3.0 5.0 0.00 0.00 0.00 24 1007.7
20260504002305 59 327 2.0 10.0 0.00 0.00 0.00 23 1008.5
20260504001806 57 254 3.0 14.0 0.00 0.00 0.00 25 1007.2
20260504001305 59 51 6.0 13.0 0.00 0.00 0.00 24 1008.1
20260504000305 59 310 7.0 13.0 0.00 0.00 0.00 21 1008.1
20260503235306 67 89 5.0 13.0 0.00 0.00 0.00 23 1010.0
20260503234806 67 308 2.0 10.0 0.00 0.00 0.00 14 1007.2
20260503233805 67 195 4.0 14.0 0.00 0.00 0.00 24 1007.2
20260503233305 67 317 4.0 13.0 0.00 0.00 0.00 15 1007.1
20260503232306 67 202 2.0 12.0 0.00 0.00 0.00 15 1009.1
20260503231805 67 196 7.0 12.0 0.00 0.00 0.00 26 1008.0
20260503231305 67 159 5.0 12.0 0.00 0.00 0.00 25 1008.9
20260503230805 67 160 8.0 8.0 0.00 0.00 0.00 28 1008.1
20260503230305 67 160 8.0 8.0 0.00 0.00 0.00 16 1009.0
20260503225805 57 160 8.0 8.0 0.00 0.00 0.00 28 1011.7
20260503225305 59 160 8.0 9.0 0.00 0.00 0.00 19 1007.6
20260503224805 58 171 8.0 9.0 0.00 0.00 0.00 26 1011.9
20260503224305 59 171 8.0 12.0 0.00 0.00 0.00 26 1007.7
20260503223805 58 163 9.0 12.0 0.00 0.00 0.00 24 1007.5
20260503223306 59 156 10.0 16.0 0.00 0.00 0.00 24 1015.1
20260503222805 60 146 7.0 22.0 0.00 0.00 0.00 24 1007.5
20260503222305 60 167 5.0 15.0 0.00 0.00 0.00 25 1007.6
20260503221304 60 178 10.0 16.0 0.00 0.00 0.00 25 1007.8
20260503220805 60 175 6.0 16.0 0.00 0.00 0.00 14 1007.8
20260503220305 59 180 8.0 16.0 0.00 0.00 0.00 24 1007.9